Location: Ferchesar
(52.6477°N, 12.4298°E)
Time: 11:21:15
(UTC+01:00)

Vanguard 3 - Pass Details

Date: 07 December 2021
Orbit: 508 x 3260 km, 33.3° (Epoch: 28 January)

Event Time Altitude Azimuth Distance (km) Brightness Sun altitude
Exits shadow 06:02:12 - 251° (WSW) 6,369 11.2 -17.7°
Reaches altitude 10° 06:03:08 10° 249° (WSW) 6,200 11.1 -17.6°
Maximum altitude 06:19:44 37° 193° (SSW) 3,917 10.6 -15.2°
Drops below altitude 10° 06:32:21 10° 133° (SE) 4,743 12.2 -13.4°
Sets 06:35:50 0° 125° (SE) 5,395 13.0 -12.9°
